Weather History for Kars, Turkey

Change the Weather History Date:

Wednesday, February 6, 2013

  Actual Average Record
Temperature  
Mean Temperature 6 °F -  
Max Temperature 23 °F 28 °F - ()
Min Temperature -12 °F 9 °F - ()
Degree Days  
Heating Degree Days 60    
Moisture  
Dew Point 5 °F    
Average Humidity 81    
Maximum Humidity 100    
Minimum Humidity 67    
Precipitation  
Precipitation 0.00 in 0.03 in - ()
Sea Level Pressure  
Sea Level Pressure 30.15 in    
Wind  
Wind Speed 1 mph ()    
Max Wind Speed 6 mph    
Max Gust Speed -    
Visibility 5.3 miles    
Events      
T = Trace of Precipitation, MM = Missing Value Source: Averaged Metar Reports

Daily Weather History Graph

Daily Weather History Graph

Search for Another Location

Airport:

Trip Planner

Search our weather history database for the weather conditions in past years. The results will help you decide how hot, cold, wet, or windy it might be!

Date:

Astronomy

Feb. 06, 2013 Rise Set
Actual Time 6:12 AM EET 4:31 PM EET
Civil Twilight 5:43 AM EET 5:00 PM EET
Nautical Twilight 5:11 AM EET 5:32 PM EET
Astronomical Twilight 4:39 AM EET 6:04 PM EET
Moon 2:34 AM EET (2/6) 12:26 PM EET (2/6)
Length of Visible Light 11h 16m
Length of Day
10h 19m
Waning Crescent, 20% of the Moon is Illuminated
Feb 6
Waning Crescent
Feb 10
New
Feb 17
First Quarter
Feb 25
Full
Mar 4
Last Quarter

Hourly Weather History & Observations

Time (EET) Temp. Windchill Dew Point Humidity Pressure Visibility Wind Dir Wind Speed Gust Speed Precip Events Conditions
12:50 AM -7.6 °F - -13.0 °F 77% 30.21 in 2.5 mi Calm Calm - N/A   Mist
1:50 AM -7.6 °F - -13.0 °F 77% 30.21 in 2.5 mi Variable 1.2 mph - N/A   Mist
2:00 AM -8 °F - -8 °F 100%  in 2 mi NW 1.2 mph - -   Mist
2:50 AM -7.6 °F - -11.2 °F 84% 30.18 in 2.5 mi Calm Calm - N/A   Mist
3:50 AM -5.8 °F - -11.2 °F 77% 30.18 in 2.5 mi Calm Calm - N/A   Mist
4:50 AM -9.4 °F - -14.8 °F 77% 30.18 in 2.5 mi Calm Calm - N/A   Mist
5:50 AM -2.2 °F -10.4 °F -5.8 °F 85% 30.21 in 6.2 mi ESE 3.5 mph - N/A   Partly Cloudy
6:50 AM -5.8 °F - -11.2 °F 77% 30.21 in 6.2 mi Calm Calm - N/A   Partly Cloudy
7:50 AM -0.4 °F - -5.8 °F 78% 30.24 in 6.2 mi Calm Calm - N/A   Partly Cloudy
8:00 AM -1 °F - -1 °F 97%  in 6 mi Calm Calm - -   Scattered Clouds
8:50 AM 3.2 °F - -0.4 °F 85% 30.24 in 6.2 mi Calm Calm - N/A   Scattered Clouds
9:50 AM 12.2 °F - 10.4 °F 92% 30.21 in 6.2 mi Calm Calm - N/A   Scattered Clouds
10:50 AM 14.0 °F - 10.4 °F 86% 30.21 in 6.2 mi Calm Calm - N/A   Scattered Clouds
11:50 AM 14.0 °F 6.5 °F 8.6 °F 79% 30.18 in 6.2 mi NW 4.6 mph - N/A   Partly Cloudy
12:50 PM 17.6 °F - 10.4 °F 73% 30.15 in 6.2 mi Variable 1.2 mph - N/A   Partly Cloudy
1:50 PM 19.4 °F 11.5 °F 10.4 °F 68% 30.12 in 6.2 mi NW 5.8 mph - N/A   Partly Cloudy
2:00 PM 18 °F - 12 °F 67%  in 6 mi NW 5.8 mph - -   Scattered Clouds
2:50 PM 19.4 °F - 10.4 °F 68% 30.12 in 6.2 mi Variable 1.2 mph - N/A   Scattered Clouds
3:50 PM 17.6 °F - 12.2 °F 79% 30.15 in 5.0 mi Variable 1.2 mph - N/A   Mostly Cloudy
4:50 PM 15.8 °F 8.6 °F 12.2 °F 86% 30.12 in 4.3 mi NW 4.6 mph - N/A   Mostly Cloudy
5:50 PM 17.6 °F - 12.2 °F 79% 30.12 in 6.2 mi Calm Calm - N/A   Partly Cloudy
6:50 PM 19.4 °F - 14.0 °F 80% 30.09 in 6.2 mi Calm Calm - N/A   Partly Cloudy
7:50 PM 21.2 °F - 15.8 °F 80% 30.09 in 6.2 mi Variable 1.2 mph - N/A   Partly Cloudy
8:00 PM 21 °F - 17 °F 77%  in 6 mi WNW 1.2 mph - -   Scattered Clouds
8:50 PM 21.2 °F 14.9 °F 15.8 °F 80% 30.09 in 6.2 mi WSW 4.6 mph - N/A   Partly Cloudy
9:50 PM 21.2 °F 16.4 °F 17.6 °F 86% 30.06 in 6.2 mi SE 3.5 mph - N/A   Mostly Cloudy
10:50 PM 23.0 °F - 19.4 °F 86% 30.04 in 6.2 mi Calm Calm - N/A   Mostly Cloudy
11:50 PM 21.2 °F - 21.2 °F 100% 30.04 in 6.2 mi WNW 1.2 mph - N/A   Mostly Cloudy